Overview Statistics Trail Chart Weather Telemetry Raw packets
 

This is the latest recevied weather packets stored in our database for station/object OK5TVR-5. If no packets are shown the sender has not sent any weather packets the latest 10 day(s).

<< 9 10 11 12 13 14 15 >>
Time Temp. Humidity Pressure Rain* Wind** Luminosity Snow
1788438141 25.56° C 39% 1011.2 hPa 0 mm - 288 W/m² -
1788437241 25° C 41% 1011.5 hPa 0 mm - 298 W/m² -
1788436341 23.89° C 40% 1011.8 hPa 0 mm - 328 W/m² -
1788435441 24.44° C 41% 1012.3 hPa 0 mm - 196 W/m² -
1788434541 23.33° C 42% 1012.4 hPa 0 mm - 243 W/m² -
1788433641 22.22° C 42% 1012.6 hPa 0 mm - 319 W/m² -
1788432743 23.33° C 41% 1012.8 hPa 0 mm - 158 W/m² -
1788431840 23.33° C 43% 1013.1 hPa 0 mm - 212 W/m² -
1788430941 22.22° C 41% 1012.8 hPa 0 mm - 383 W/m² -
1788430040 22.22° C 45% 1013.3 hPa 0 mm - 191 W/m² -
1788429141 21.67° C 45% 1013.5 hPa 0 mm - 172 W/m² -
1788428241 22.22° C 45% 1013.3 hPa 0 mm - 216 W/m² -
1788427341 21.11° C 47% 1013.6 hPa 0 mm - 187 W/m² -
1788426441 20.56° C 49% 1013.8 hPa 0 mm - 133 W/m² -
1788425541 20.56° C 55% 1013.6 hPa 0 mm - 173 W/m² -
1788424641 20.56° C 54% 1013.4 hPa 0 mm - 131 W/m² -
1788423741 20° C 57% 1014 hPa 0 mm - 171 W/m² -
1788422841 18.89° C 58% 1014 hPa 0 mm - 122 W/m² -
1788421941 18.33° C 61% 1014 hPa 0 mm - 123 W/m² -
1788421041 18.33° C 64% 1014.3 hPa 0 mm - 105 W/m² -
1788420141 17.22° C 67% 1014.5 hPa 0 mm - 62 W/m² -
1788419240 17.22° C 76% 1014.5 hPa 0 mm - 46 W/m² -
1788418341 17.22° C 76% 1014.6 hPa 0 mm - 48 W/m² -
1788417440 15.56° C 78% 1014.8 hPa 0 mm - 50 W/m² -
1788416540 16.11° C 81% 1014.4 hPa 0 mm - 42 W/m² -

* Rain latest hour (hover to see other rain measurements)
** Current wind speed in m/s (hover to see current wind gust speed)